User: anonymous   Login
Location: Columbia
(38.9520°N, 92.3340°W)
Time: 04:48:27
(UTC-05:00)
Language:

Cosmos 158 Rocket - Orbit

View from above orbital plane
View from above orbital plane
View from above satellite
View from above satellite

Ground track
Ground track

The orbit data is extracted from the following two-line orbital elements,

1 02802U 67045B   15182.16243990  .00000060  00000-0  25654-4 0  9997
2 02802 074.0125 061.3124 0067650 287.7459 071.6322 14.43470942525513
Epoch (UTC): 01 July 2015 03:53:54
Eccentricity: 0.0067650
inclination: 74.0125°
perigee height: 699 km
apogee height: 795 km
right ascension of ascending node: 61.3124°
argument of perigee: 287.7459°
revolutions per day: 14.43470942
mean anomaly at epoch: 71.6322°
orbit number at epoch: 52551

The dashed part of the orbit path shows where the satellite is in the earth's shadow,  

DLR